Estación Meteorológica de la Universidad de Murcia
Estación Meteorológica de la Universidad de Murcia
Universidad de Murcia
 

Humedad relativaHumedad relativa

 

Máxima: 97,1 % a las 07:48:00 del día 25/09/2018
Mínima: 55,2 % a las 16:21:00 del día 25/09/2018

||Humedad máxima últimos meses|| ---- ||Humedad mínima últimos meses||


Humedad máxima

  • 1 - 97,1 % del día 25/09/2018
  • 2 - 97 % del día 21/09/2018
  • 3 - 97 % del día 20/09/2018
  • 4 - 98,4 % del día 19/09/2018
  • 5 - 98 % del día 18/09/2018
  • 6 - 94,6 % del día 17/09/2018
  • 7 - 97,1 % del día 16/09/2018
  • 8 - 99 % del día 15/09/2018
  • 9 - 95,4 % del día 14/09/2018
  • 10 - 92,2 % del día 13/09/2018
  • 11 - 91,4 % del día 12/09/2018
  • 12 - 90,1 % del día 11/09/2018
  • 13 - 93,3 % del día 10/09/2018
  • 14 - 90,1 % del día 09/09/2018
  • 15 - 99,2 % del día 08/09/2018
  • 16 - 86,4 % del día 07/09/2018
  • 17 - 84,2 % del día 06/09/2018
  • 18 - 92,9 % del día 05/09/2018
  • 19 - 90,6 % del día 04/09/2018
  • 20 - 99,7 % del día 03/09/2018
  • 21 - 95,8 % del día 02/09/2018
  • 22 - 95,1 % del día 01/09/2018
  • 23 - 96,3 % del día 31/08/2018
  • 24 - 96,1 % del día 30/08/2018
  • 25 - 95,9 % del día 29/08/2018
  • 26 - 97,5 % del día 28/08/2018
  • 27 - 96,9 % del día 27/08/2018
  • 28 - 91,5 % del día 26/08/2018
  • 29 - 93 % del día 25/08/2018
  • 30 - 87,1 % del día 24/08/2018
  • 31 - 92,7 % del día 23/08/2018
  • 32 - 85,1 % del día 22/08/2018
  • 33 - 87,1 % del día 21/08/2018
  • 34 - 95,9 % del día 20/08/2018
  • 35 - 93,6 % del día 19/08/2018
  • 36 - 92,6 % del día 18/08/2018
  • 37 - 94,7 % del día 17/08/2018
  • 38 - 95,3 % del día 16/08/2018
  • 39 - 97,2 % del día 15/08/2018
  • 40 - 94,4 % del día 14/08/2018
  • 41 - 96,6 % del día 13/08/2018
  • 42 - 95,1 % del día 12/08/2018
  • 43 - 96,2 % del día 11/08/2018
  • 44 - 95,8 % del día 10/08/2018
  • 45 - 97 % del día 09/08/2018
  • 46 - 97,7 % del día 08/08/2018
  • 47 - 89,5 % del día 07/08/2018
  • 48 - 75,1 % del día 06/08/2018
  • 49 - 81,6 % del día 05/08/2018
  • 50 - 93,2 % del día 04/08/2018
  • 51 - 91 % del día 03/08/2018
  • 52 - 87,1 % del día 02/08/2018
  • 53 - 96,4 % del día 01/08/2018
  • 54 - 94,2 % del día 31/07/2018
  • 55 - 83,2 % del día 30/07/2018
  • 56 - 81,3 % del día 29/07/2018
  • 57 - 90 % del día 28/07/2018
  • 58 - 91,5 % del día 27/07/2018

||Volver al inicio de la página||


Humedad mínima

  • 1 - 55,2 % del día 25/09/2018
  • 2 - 43 % del día 21/09/2018
  • 3 - 43 % del día 20/09/2018
  • 4 - 41,4 % del día 19/09/2018
  • 5 - 44,8 % del día 18/09/2018
  • 6 - 58,2 % del día 17/09/2018
  • 7 - 51,6 % del día 16/09/2018
  • 8 - 69,8 % del día 15/09/2018
  • 9 - 47,7 % del día 14/09/2018
  • 10 - 41,3 % del día 13/09/2018
  • 11 - 51,7 % del día 12/09/2018
  • 12 - 56,5 % del día 11/09/2018
  • 13 - 48,5 % del día 10/09/2018
  • 14 - 65 % del día 09/09/2018
  • 15 - 69,9 % del día 08/09/2018
  • 16 - 42 % del día 07/09/2018
  • 17 - 20,9 % del día 06/09/2018
  • 18 - 39,4 % del día 05/09/2018
  • 19 - 43,7 % del día 04/09/2018
  • 20 - 52,5 % del día 03/09/2018
  • 21 - 54,5 % del día 02/09/2018
  • 22 - 51,3 % del día 01/09/2018
  • 23 - 53,3 % del día 31/08/2018
  • 24 - 57 % del día 30/08/2018
  • 25 - 44,9 % del día 29/08/2018
  • 26 - 40 % del día 28/08/2018
  • 27 - 49,6 % del día 27/08/2018
  • 28 - 52,2 % del día 26/08/2018
  • 29 - 42,9 % del día 25/08/2018
  • 30 - 28,4 % del día 24/08/2018
  • 31 - 36,2 % del día 23/08/2018
  • 32 - 36,8 % del día 22/08/2018
  • 33 - 33,2 % del día 21/08/2018
  • 34 - 35,8 % del día 20/08/2018
  • 35 - 56,4 % del día 19/08/2018
  • 36 - 56,7 % del día 18/08/2018
  • 37 - 48,5 % del día 17/08/2018
  • 38 - 49,8 % del día 16/08/2018
  • 39 - 58,8 % del día 15/08/2018
  • 40 - 54 % del día 14/08/2018
  • 41 - 33,8 % del día 13/08/2018
  • 42 - 50,6 % del día 12/08/2018
  • 43 - 47,7 % del día 11/08/2018
  • 44 - 51,8 % del día 10/08/2018
  • 45 - 38,4 % del día 09/08/2018
  • 46 - 48,4 % del día 08/08/2018
  • 47 - 44,7 % del día 07/08/2018
  • 48 - 28,9 % del día 06/08/2018
  • 49 - 31,8 % del día 05/08/2018
  • 50 - 31,9 % del día 04/08/2018
  • 51 - 31,6 % del día 03/08/2018
  • 52 - 36,9 % del día 02/08/2018
  • 53 - 23,5 % del día 01/08/2018
  • 54 - 31 % del día 31/07/2018
  • 55 - 17,1 % del día 30/07/2018
  • 56 - 20,6 % del día 29/07/2018
  • 57 - 15 % del día 28/07/2018
  • 58 - 35 % del día 27/07/2018

 

|| Temperatura Ambiente|| Velocidad y dirección del viento|| Precipitación|| Radiación Solar Global y PAR|| Temperatura y humedad del suelo|| Presión atmosférica|| Más información|| Volver a la página principal|| Volver al inicio de la página||


Estación Meteorológica de la Universidad de Murcia
http://estacion.um.es/
Informacion actualizada a: 26/09/2018 a las 02:53:00